Theta_e
300 299 301 300 301 301 300 298 297 298 299 298 299 299 299 300 298 299 300 300 301 302 302 304 306 308 308 308 308 307 305 303 302 302 300 299 299 298 297 296 295 294
299 299 298 298 297 295 297 298 298 298 299 298 298 298 298 297 297 298 299 299 299 300 302 303 305 306 307 308 308 307 306 304 303 302 301 299 299 298 298 297 296 295
297 297 297 298 299 298 298 297 297 298 298 298 296 296 297 296 297 296 298 298 298 298 299 300 302 304 306 306 307 306 305 304 303 302 300 300 299 298 298 297 296 295
297 298 298 298 298 298 297 297 296 295 294 295 296 297 296 296 296 296 296 296 297 297 298 299 300 301 303 304 304 304 304 304 304 302 301 300 299 298 298 297 296 296
297 297 296 297 297 297 295 296 296 296 296 297 295 294 294 294 295 294 294 294 295 296 297 298 300 300 301 302 302 302 302 302 301 300 299 298 298 298 297 296 295 294
293 295 296 296 296 296 296 296 297 296 296 295 296 295 294 294 293 293 293 293 293 295 295 296 298 298 299 300 300 301 301 299 299 299 298 297 296 296 296 295 295 294
294 293 294 295 294 295 295 296 295 295 295 296 292 293 292 293 293 293 294 293 293 293 295 296 296 296 297 297 298 298 298 298 296 296 296 296 295 295 294 294 293 294
293 291 293 292 293 293 294 295 294 294 293 290 292 293 292 293 293 293 292 292 293 293 293 293 294 296 295 295 295 295 295 297 296 295 295 295 295 295 294 294 294 293
290 290 290 290 290 291 291 291 291 289 289 291 291 290 289 291 291 291 291 291 292 291 292 292 293 293 292 293 294 294 294 294 295 295 295 294 294 294 295 294 293 293
289 289 288 289 289 289 290 289 288 289 288 290 290 289 290 289 290 291 291 291 291 290 290 291 291 290 290 291 293 293 294 294 294 294 294 295 295 295 294 294 293 293
288 287 287 288 289 288 289 288 287 288 287 289 289 289 290 289 288 289 290 290 291 291 291 290 290 291 291 290 290 291 293 293 294 294 294 294 294 295 293 294 293 293
287 287 287 288 288 288 288 288 287 287 288 288 288 290 289 289 290 289 289 290 290 291 291 291 290 290 291 291 291 290 291 292 292 293 293 294 294 294 294 294 294 293
287 287 287 287 287 288 287 287 287 287 287 288 287 288 289 289 288 289 289 289 290 290 290 290 290 290 291 291 291 292 291 291 292 292 293 293 293 293 294 294 294 293
287 286 286 287 287 287 287 287 287 286 287 287 286 288 288 289 289 289 289 289 290 290 290 290 290 290 291 291 292 292 291 291 291 291 292 292 292 292 293 293 293 293
287 286 286 286 286 287 287 287 287 286 286 286 286 287 288 288 289 289 289 289 289 289 289 289 290 291 291 292 292 291 291 291 291 291 291 291 291 292 292 292 292 292
287 286 287 286 286 286 287 286 286 286 286 286 287 287 287 287 287 287 288 289 289 289 288 289 290 291 290 292 292 292 292 292 291 291 291 291 291 290 291 291 291 292
287 287 286 287 287 286 286 286 286 286 285 286 286 286 287 287 286 287 288 288 288 289 288 288 289 290 291 293 294 294 292 292 291 291 291 290 290 290 290 290 290 290
285 286 286 287 285 286 286 286 285 284 285 286 286 286 286 285 285 287 287 288 288 288 288 289 289 290 292 293 293 294 293 291 291 291 290 290 290 290 290 290 289 289
285 285 285 286 286 286 285 284 284 284 285 285 286 286 283 285 286 286 287 287 287 287 288 288 289 291 292 293 293 293 294 292 290 290 290 289 290 289 289 289 289 289
284 284 285 285 285 285 284 284 283 285 285 285 285 284 285 285 285 285 286 286 286 287 287 288 288 289 292 292 292 293 293 293 290 289 289 289 289 289 289 289 289 289
286 285 285 285 284 284 283 283 284 285 285 285 285 285 285 286 286 285 286 286 286 286 286 287 288 290 291 292 292 292 293 292 289 289 289 288 288 288 288 288 288 288
285 285 285 285 285 284 283 284 284 284 285 285 284 284 284 284 284 284 285 285 286 285 285 286 287 290 291 291 292 292 293 289 288 288 288 288 287 287 287 287 287 287
285 284 285 285 285 284 284 285 285 285 284 281 283 284 284 284 284 285 285 285 285 285 285 286 286 288 290 290 291 292 291 288 287 287 287 287 287 287 287 287 287 286
284 284 284 284 284 284 285 285 285 284 284 282 283 284 284 284 284 284 284 284 284 284 285 285 286 286 288 289 290 291 290 287 287 287 287 287 287 287 287 286 286 286
283 282 282 283 283 284 284 285 285 285 285 280 283 282 283 283 282 282 283 283 283 283 284 284 285 285 288 289 290 290 289 287 286 286 286 286 286 286 286 286 285 285
283 282 282 282 283 283 284 284 284 283 283 282 282 281 282 282 281 281 281 283 282 282 282 283 283 284 284 288 289 289 290 287 286 285 285 286 286 286 285 284 284 284
Wind_Speed
5 5 6 6 6 6 6 6 6 7 7 6 7 7 8 7 5 7 7 6 7 7 6 6 6 7 5 6 8 9 9 11 12 11 11 12 13 15 14 15 14 12
7 6 5 5 4 4 5 6 7 7 7 7 6 6 6 5 6 7 7 7 6 7 6 6 6 7 7 7 7 9 9 10 12 9 11 12 12 13 15 15 14 12
6 6 7 7 8 8 8 7 6 6 6 6 5 4 5 5 6 6 6 6 7 6 6 6 6 6 7 7 7 9 10 11 12 10 10 13 13 14 14 13 11 13
7 7 7 7 7 7 6 6 5 5 4 5 6 7 6 5 5 6 6 7 6 6 6 7 7 6 7 7 7 7 9 10 10 10 12 11 11 11 10 9 12 11
7 7 6 6 6 6 5 6 7 6 7 7 5 4 6 5 6 6 6 6 6 7 7 7 7 7 7 7 6 7 7 8 8 8 9 10 10 10 10 9 10 12
5 5 6 7 7 7 7 7 7 7 7 6 7 6 6 6 6 7 7 7 7 7 7 6 6 7 7 7 7 8 7 7 7 8 9 10 10 9 9 11 12 13
6 6 7 6 6 6 7 7 6 6 6 6 4 6 6 7 7 7 7 7 7 7 8 7 7 7 6 6 8 8 7 7 6 8 10 9 8 9 9 9 10 11
6 5 5 5 7 7 8 8 6 6 6 4 6 6 6 8 8 7 7 7 8 8 7 7 7 7 6 7 8 8 8 7 7 8 9 9 8 11 10 9 10 12
5 5 5 6 7 7 7 7 6 5 5 7 7 6 6 7 7 7 7 7 8 7 7 7 7 7 6 7 8 8 8 8 8 8 9 10 10 11 11 10 11 11
6 5 5 6 7 6 7 6 5 5 5 7 7 6 7 6 6 7 7 8 8 7 8 7 7 7 7 8 9 8 8 9 8 8 9 10 11 11 10 10 12 11
5 4 5 6 7 6 7 5 6 6 5 7 6 7 7 7 7 6 7 7 9 9 9 9 9 8 9 9 8 8 9 9 9 9 9 10 10 11 10 11 11 12
3 3 5 6 6 6 7 6 6 5 6 6 6 7 6 7 8 7 8 9 9 9 9 9 8 8 9 10 9 8 8 8 9 9 9 9 10 10 10 10 11 12
3 4 5 6 6 7 6 5 6 6 6 7 6 7 8 8 7 8 8 9 10 9 9 9 9 9 9 9 8 8 9 9 9 9 9 9 9 10 10 10 11 11
4 4 5 6 6 6 6 6 6 5 6 6 5 8 9 8 8 9 8 7 10 9 9 8 8 8 9 9 8 8 8 8 8 9 9 9 9 10 10 10 11 11
5 4 4 5 5 5 5 6 6 6 6 6 6 7 7 7 6 6 7 9 9 8 8 7 8 10 8 9 9 9 8 9 9 9 10 10 10 10 10 10 10 10
5 5 5 4 5 5 6 5 5 5 5 6 7 7 6 6 6 6 8 10 9 8 8 7 8 8 10 15 13 10 8 8 9 10 10 10 10 10 9 9 10 10
5 6 5 5 5 5 5 5 6 5 5 6 6 6 7 6 6 8 9 8 9 9 8 8 8 8 14 15 16 16 11 9 10 10 9 10 10 10 11 10 10 10
5 5 5 6 5 5 5 5 5 5 6 6 6 7 7 4 7 9 9 8 8 9 10 10 10 11 16 16 16 16 14 11 9 9 9 9 9 10 10 9 9 9
5 5 5 5 5 5 5 4 5 5 6 6 8 7 4 6 9 8 9 8 8 9 10 10 10 11 15 16 16 17 17 15 10 10 10 10 10 10 10 9 8 9
5 5 5 6 5 5 5 5 4 7 6 6 6 5 6 7 7 9 8 8 8 9 10 10 10 11 15 16 16 17 17 15 10 10 10 10 11 10 9 10 10 10
7 6 7 7 5 5 5 5 6 6 6 6 6 6 7 8 8 8 8 8 9 9 9 10 10 11 14 16 16 17 17 15 10 9 9 9 9 9 9 10 9 9
6 7 7 7 6 6 5 6 5 6 7 6 5 6 6 6 7 6 9 9 9 8 9 12 10 12 14 15 16 16 17 11 9 9 10 9 9 9 9 9 9 9
6 7 8 8 7 7 7 7 7 7 6 4 6 7 7 7 8 8 8 8 8 8 10 12 10 10 14 16 16 17 13 9 8 9 9 10 10 9 9 9 9 9
7 6 7 8 7 8 8 8 6 5 5 4 6 7 8 8 7 8 7 7 9 10 10 11 11 9 13 15 16 16 13 10 8 8 10 10 10 9 8 8 9 12
6 6 6 7 7 8 7 8 8 7 6 4 6 6 8 7 6 7 8 7 8 10 10 11 12 10 11 14 15 16 13 9 8 8 10 10 8 9 7 7 7 9
6 6 6 6 8 8 7 7 6 7 6 6 6 6 7 7 6 7 9 10 7 8 9 9 11 10 7 12 14 16 17 11 8 9 11 10 9 9 8 7 8 8
Wind_Direction
215 205 213 209 215 211 208 207 212 215 218 216 215 219 212 219 208 208 217 217 219 221 219 223 224 228 219 212 214 212 211 213 214 212 215 216 220 213 215 218 217 213
218 212 214 212 218 211 213 205 211 208 220 216 221 220 222 209 213 203 211 216 220 224 224 225 229 234 233 224 211 212 215 213 217 208 213 215 221 221 223 219 216 216
216 212 210 211 213 214 213 212 209 213 216 221 218 217 223 211 214 211 212 211 214 218 218 220 223 229 234 234 224 215 213 211 217 209 212 217 216 217 219 214 214 214
219 215 214 218 217 220 214 210 215 216 218 222 216 214 209 213 211 212 215 213 214 216 214 213 219 223 229 233 228 227 224 223 220 210 214 219 221 221 223 219 221 221
215 217 220 223 224 225 217 213 215 211 214 220 218 207 210 207 210 214 213 217 216 220 215 217 218 219 218 226 224 232 226 226 217 208 211 217 218 214 218 214 218 221
223 217 218 216 218 217 221 221 218 213 216 215 216 209 209 208 209 211 211 216 217 219 221 222 219 219 213 217 220 230 227 223 216 209 217 218 218 214 215 214 217 221
223 215 224 220 223 220 225 228 224 218 216 216 206 216 202 211 213 212 213 213 216 217 218 218 216 218 215 216 223 229 226 223 214 212 219 224 219 222 220 218 220 223
231 226 223 222 226 224 225 226 224 218 214 205 215 220 201 216 215 215 212 213 216 220 220 221 218 218 214 214 224 229 232 223 221 215 220 225 216 225 219 218 218 220
230 231 222 228 231 233 234 232 230 223 203 211 220 221 217 217 219 215 213 214 219 221 219 220 219 218 215 214 225 225 227 228 223 218 221 223 223 225 222 218 221 222
229 232 226 233 238 239 242 238 231 228 214 219 219 209 218 225 221 219 215 216 221 222 218 218 219 217 218 218 222 220 224 228 225 224 225 227 228 228 225 219 221 222
237 230 237 243 245 246 247 239 229 226 218 226 224 224 217 212 222 216 220 220 222 221 219 218 216 212 217 222 222 219 222 224 225 226 226 228 228 229 225 222 222 223
254 250 246 249 252 253 248 242 237 229 227 229 220 233 231 224 217 209 211 222 223 225 220 222 215 215 220 222 219 216 220 224 226 227 229 229 230 229 227 224 224 225
287 260 251 253 250 250 248 245 240 234 227 233 222 226 231 230 224 223 220 216 225 224 224 221 218 217 223 224 223 220 220 222 227 229 231 231 231 230 229 228 228 228
288 267 255 252 250 248 247 244 242 235 232 235 223 229 231 232 227 225 228 223 230 225 224 220 221 225 226 225 223 222 223 228 228 231 233 235 234 232 230 230 229 227
294 284 270 265 259 257 253 249 244 240 238 233 231 239 238 238 239 233 235 237 238 233 231 216 218 228 226 222 220 223 223 230 230 233 233 236 236 235 233 233 233 232
305 300 292 279 274 263 258 255 250 246 242 241 240 241 244 240 240 234 233 238 242 239 234 228 229 228 229 229 221 217 215 223 229 233 233 235 237 239 238 233 234 233
314 304 303 290 276 276 273 266 259 253 250 251 252 249 245 242 234 238 238 239 240 241 238 232 233 231 231 232 233 226 220 222 226 234 231 234 234 235 238 234 234 231
303 303 302 293 292 278 269 261 260 256 255 254 258 257 252 245 242 241 243 241 241 239 239 236 236 231 232 235 233 232 225 226 228 233 233 235 235 236 238 237 236 235
307 303 295 293 286 280 274 270 259 260 257 256 253 251 259 244 246 247 248 248 246 248 247 243 246 237 236 236 235 234 231 227 233 229 234 237 233 233 234 234 235 236
319 311 302 293 292 288 283 274 265 257 255 252 260 260 247 253 251 250 251 249 246 248 253 251 248 242 239 239 237 235 234 231 235 232 233 236 235 232 233 233 232 233
335 328 316 311 304 295 290 279 268 272 267 261 254 250 249 248 250 253 249 247 248 246 254 256 252 248 244 243 242 240 238 235 239 238 240 239 236 233 232 233 232 232
331 323 317 314 312 308 299 288 278 267 272 270 261 260 255 258 260 246 254 250 247 247 252 258 255 245 245 243 242 243 241 239 239 240 242 241 238 232 231 230 230 227
327 321 316 314 312 310 301 293 290 283 272 254 261 258 257 252 251 247 246 249 251 244 247 258 259 243 243 243 242 242 241 241 239 241 243 243 241 233 231 230 228 225
318 314 310 309 310 305 300 296 287 277 272 252 254 267 264 253 252 258 250 242 247 248 239 254 261 243 238 243 242 239 233 237 237 239 246 243 247 237 234 234 228 224
310 306 300 299 298 294 294 295 293 289 286 269 257 263 266 271 264 264 264 249 241 247 247 247 260 255 241 244 241 239 235 235 234 237 246 244 242 246 234 232 232 225
310 308 300 297 298 296 293 285 290 296 291 284 275 259 272 272 270 265 269 266 247 247 248 241 253 258 238 239 242 241 237 233 230 233 242 245 240 241 241 233 228 229